Regional Weather Roundup
Issued by NWS Wakefield, VA

Home | Current Version | Previous Version | Graphics & Text | Print | Product List | Glossary On
Versions: 1 2 3 4 5 6 7 8 9 10 11 12 13 14 15 16 17 18 19 20 21 22 23 24 25 26 27
000
ASUS41 KAKQ 270915
RWRAKQ

REGIONAL WEATHER ROUNDUP
NATIONAL WEATHER SERVICE WAKEFIELD VA
500 AM EDT THU JUL 27 2017

Note: "fair" indicates few or no clouds below 12,000 feet with no
significant weather and/or obstructions to visibility. * = Denotes
station may not report precipitation (e.g., rain,snow,etc.),
thunder or fog.

VAZ042-051-052>054-056-271000-
NORTHERN VIRGINIA

CITY           SKY/WX    TMP DP  RH WIND       PRES   REMARKS
WASH NATIONAL  MOCLDY    73  69  87 S8        30.05S
DULLES         MOCLDY    69  66  90 CALM      30.05R
FORT BELVOIR   PTCLDY    71  66  82 SE5       30.04S
QUANTICO       LGT RAIN  74  70  87 S14       30.04S
FREDERICKSBRG* CLEAR     70  67  89 S6        30.04R
STAFFORD*      CLOUDY    69  68  97 S3        30.08S
WARRENTON      PTCLDY    65  62  88 CALM      30.04S
CULPEPER*      CLEAR     65  65  99 CALM      30.05F FOG
MANASSAS*      MOCLDY    68  66  93 CALM      30.05R
LEESBURG*      CLOUDY    72  70  94 S3        30.05S
WINCHESTER     PTCLDY    64  63  94 CALM      30.03S
FRONT ROYAL*   MOSUNNY   64  64 100 CALM      30.03R
LURAY*         MOSUNNY   64  64 100 CALM      30.04S
$$

VAZ048-049-060>072-079>083-271000-
CENTRAL AND SOUTH CENTRAL VIRGINIA

CITY           SKY/WX    TMP DP  RH WIND       PRES   REMARKS
RICHMOND       MOCLDY    70  67  90 S8        30.04F
CHESTERFIELD*  NOT AVBL
PETERSBURG*    PTCLDY    68  67  96 CALM      30.06S
HANOVER        MOCLDY    70  65  84 VRB6      30.06S
TAPPAHANNOCK*  MOCLDY    69  67  94 S3        30.06S
QUINTON*       FAIR      69  69 100 S3        30.05F
CHARLOTTSVILLE PTCLDY    69  67  93 S3        30.04S
GORDONSVILLE*  MOSUNNY   65  65 100 CALM      30.05S
ORANGE*        PTCLDY    64  63  94 CALM      30.04S
LOUISA*        PTCLDY    68  64  88 CALM      30.05R
BUMPASS*       FAIR      69  68  97 S8        30.05R
FARMVILLE*     CLOUDY    73  68  82 S5        30.04R
CREWE*         CLOUDY    71  67  87 S3        30.05S
FORT PICKETT*  CLOUDY   N/A N/A N/A S8        30.06S
CHASE CITY*    CLOUDY    74  70  86 S3        30.07R
CLARKSVILLE*   FAIR      72  70  94 S6        30.06R
SOUTH HILL*    PTCLDY    70  67  92 S7        30.12S
LAWRENCEVILLE* FAIR      69  67  94 CALM      30.06F
EMPORIA*       CLEAR     68  64  88 CALM      30.07F
$$

VAZ088>098-271000-
SOUTHEAST VIRGINIA

CITY           SKY/WX    TMP DP  RH WIND       PRES   REMARKS
NORFOLK        CLOUDY    71  67  87 S5        30.07S
VIRGINIA BEACH MOCLDY    69  65  86 SW3       30.06F
NORFOLK NAVAL  PTCLDY    72  66  81 S3        30.08F
WEST POINT*    MOCLDY    73  66  80 S9        30.07F
SALUDA*        FAIR      69  68  96 S3        30.06F
NEWPORT NEWS   PTCLDY    71  66  84 S5        30.06F
LANGLEY AFB    PTCLDY    72  67  87 CALM      30.06F
FORT EUSTIS    MOCLDY    73  67  80 S7        30.04F
WILLIAMSBURG*  MOCLDY    75  68  78 S9        30.07F
HR EXEC AP*    FAIR      64  63  94 CALM      30.06S
FRANKLIN*      CLOUDY    68  66  94 CALM      30.07F
US460-WAKEFLD  MOCLDY    70  68  93 CALM      30.06F
$$

VAZ020-022-025-037-045-271000-
WEST CENTRAL AND SOUTHWEST VIRGINIA

CITY           SKY/WX    TMP DP  RH WIND       PRES   REMARKS
STAUNTON*      PTCLDY    63  61  96 CALM      30.07F
WAYNESBORO*    MOSUNNY   65  65 100 CALM      30.07S
HOT SPRINGS VA CLOUDY    64  63  94 SW10      30.18F
LYNCHBURG      CLOUDY    68  67  96 CALM      30.06S
DANVILLE       MOCLDY    70  70 100 S3        30.06R
SOUTH BOSTON*  PTSUNNY   72  71  95 SW3       30.06R
MARTINSVILLE   PTCLDY    66  65  97 CALM      30.09S FOG
ROANOKE        MOCLDY    70  67  90 CALM      30.09S
BLACKSBURG     CLOUDY    67  65  95 CALM      30.15S
DUBLIN*        CLOUDY    66  62  89 CALM      30.13S FOG
MARION*        PTCLDY    65  62  88 CALM      30.16F FOG
HILLSVILLE*    PTCLDY    67  64  87 CALM      30.14S HAZE
RICHLANDS*     FAIR      69  62  77 CALM      30.14S
WISE*          PTCLDY    70  68  94 S5        30.14S
ABINGDON*      MOCLDY    71  68  90 CALM      30.11S
$$

MDZ021>025-VAZ099-100-271000-
SOUTHERN MARYLAND AND THE DELMARVA PENINSULA

CITY           SKY/WX    TMP DP  RH WIND       PRES   REMARKS
PATUXENT RIVER MOCLDY    72  68  87 S7        30.05S
BAY BRIDGE APT CLOUDY    73  70  88 S6        30.04F
LEONARDTOWN    MOCLDY    70  64  83 S3        30.07S
DOVER          MOCLDY    68  68 100 S7        30.05S
GEORGETOWN     CLOUDY    67  64  90 CALM      30.07F
EASTON         CLOUDY    72  67  84 S6        30.09S
CAMBRIDGE      CLOUDY    68  66  94 SE3       30.05S
SALISBURY      MOCLDY    68  66  93 SE3       30.07S
OCEAN CITY     CLOUDY    71  67  87 SW5       30.07S
WALLOPS ISLAND PTCLDY    71  69  93 S7        30.06F
ACCOMACK*      PTCLDY    70  67  89 S3        30.07F
$$

NCZ012>017-030>032-271000-
NORTH CENTRAL AND EASTERN NORTH CAROLINA

CITY           SKY/WX    TMP DP  RH WIND       PRES   REMARKS
ROANOKE RAPIDS FAIR      66  66 100 CALM      30.07S
RALEIGH        PTCLDY    74  66  76 S6        30.07S
ELIZABETH CITY CLOUDY    68  67  96 CALM      30.08R
AHOSKIE*         N/A     67  66  97 CALM      30.08S
EDENTON*       CLOUDY    74  69  81 CALM      30.08S
CURRITUCK*     CLOUDY    70  70 100 CALM      30.08S
KILL DEVIL HLS CLOUDY    71  67  88 CALM      30.07S
MANTEO         CLOUDY    68  66  91 CALM      30.08S
CAPE HATTERAS  CLEAR     71  66  84 E5        30.06F
TARBORO*       NOT AVBL
GOLDSBORO      CLEAR     71  71 100 CALM      30.06S
WASHINGTON       N/A     69  67  93 E3        30.07F
GREENVILLE     CLEAR     70  68  94 CALM      30.09S
NEW BERN       CLEAR     68  67  96 CALM      30.08S
WILMINGTON     PTCLDY    71  70  96 CALM      30.07S
$$

VAZ048-271000-
ELSEWHERE

CITY           SKY/WX    TMP DP  RH WIND       PRES   REMARKS
HARRISBURG PA  CLOUDY    70  67  90 SE6       30.03F
BALTIMORE      CLOUDY    72  70  93 VRB3      30.05S
ANNAPOLIS      CLOUDY    74  71  91 S8        30.03F
ANDREWS AFB    CLOUDY    68  66  93 SE5       30.04F
PHILADELPHIA   MOCLDY    67  62  84 S7        30.06F
HENDERSON NC   CLEAR     69  65  88 S3        30.07S
GREENSBORO     MOCLDY    74  70  87 SW6       30.08R
ROCKY MOUNT    PTCLDY    69  69 100 CALM      30.07S
$$

VAZ100-271000-
MARINE

STATION/POSITION TIME  TEMP    WIND        PRES    WAVE   SWELL
                       AIR SEA DIR/SP/G            HT/PER HT/PER
                 (UTC) (F)     (DEG/KT/KT) (MB)    (FT/S) (FT/S)
BRANDYWINE LGT   0842   71     190/ 11/ 12 1018.3F
CAPE MAY NJ      0842   69 76  180/  3/  4 1017.6F
LEWES DE         0848   69 75  170/  3/  4 1017.8F
15NM E FENWICK I 0850   73 77  170/  4/  8 1018.9S   2/10   2/10
OCEAN-CITY-INLET 0848   72 72  220/  7/  8 1018.6S
WACHAPREAGUE VA  0848   73 79  150/  7/  9 1018.0F
THOMAS POINT MD  0900   75 81  200/ 16/ 17   N/A
GOOSES REEF MD   0900   76 82  230/ 14/ 17 1018.2    2/ 3
COVE POINT MD    0848   74     200/ 12/ 18 1018.3R
SOLOMONS ISLAND  0848   74 83  200/ 10/ 13   N/A
BISHOPS HEAD MD  0848   75 79  160/ 13/ 15 1017.7F
PINEY POINT MD   0836          190/ 11/ 13   N/A
CAMBRIDGE MD     0848   71 84              1018.3F
LEWISETTA VA     0848   73 82  190/  8/ 10 1017.4F
RAPPAHANNOCK LGT 0836          160/ 12/ 14 1018.6F
STINGRAY PT      0850   75     200/ 12/ 16 1017.8F
YORK RVR RNG VA  0848   74     190/ 10/ 11 1018.4F
YORKTOWN VA      0848   72 81  170/  5/  6 1017.8F
JAMESTOWN VA     0900      85  160/  8/ 12   N/A     0
DOMINION TERM VA 0848   74     180/  9/ 10 1018.2F
KIPTOPEKE VA     0836      73  160/  4/  4   N/A
CHES BAY BRIDGE  0836   72 69  200/  6/  7 1018.2F
CAPE HENRY VA    0836   72     180/  5/  6   N/A
WILLOUBY STN VA  0836   73     160/  6/  7 1018.1F
S CRANEY ISL VA  0836   74     210/  3/  6 1018.2R
CAPE HENRY BUOY  0900      73                N/A     2/ 7
1ST LANDING BUOY 0900   73 73              1018.3    1/ 4
64NM E OF VA BCH 0850   74 77  130/  2/  4 1019.0F   3/ 6   3/ 6
DUCK PIER NC     0836   74 74  140/  4/  5 1018.0S
44100 DUCK FRF   0805      72                N/A     3/ 7
44056 DUCK FRF   0900      74                N/A     3/ 8
OREGON INLET NC  0836   73 76   90/  3/  5 1018.2S
HATTERAS NC      0836   76 78  100/  3/  4 1018.1F
DIAMOND SHLS NC  0850   80 84   60/  4/  6 1018.2F   3/ 7   3/ 7
CAPE LOOKOUT NC  0900   79      90/  6/  6 1017.9F
$$




USA.gov is the U.S. government's official web portal to all federal, state and local government web resources and services.